Regional Weather Roundup
Issued by NWS

Home | Current Version | Previous Version | Graphics & Text | Print | Product List | Glossary On
Versions: 1 2 3 4 5 6 7 8 9 10 11 12 13 14 15 16 17 18 19 20 21 22 23 24 25 26 27 28 29 30 31 32 33 34 35 36 37 38 39 40 41 42 43 44 45 46 47 48 49 50
000
ASUS45 KBOU 291507
RWRCO

WEATHER ROUNDUP FOR COLORADO
NATIONAL WEATHER SERVICE DENVER/BOULDER CO
900 AM MDT SUN MAY 29 2016

NOTE: "FAIR" INDICATES FEW OR NO CLOUDS BELOW 12000 FEET WITH NO
SIGNIFICANT WEATHER AND/OR OBSTRUCTIONS TO VISIBILITY.

COZ001>005-013-030-031-291600-
...NORTHWEST COLORADO...

CITY           SKY/WX    TMP DP  RH WIND       PRES   REMARKS
CRAIG          FAIR      56  40  55 VRB3      30.23S
HAYDEN         FAIR      52  37  58 E6        30.24S
MEEKER         FAIR      54  34  46 CALM      30.23S
MOUNT WERNER   NOT AVBL
STEAMBOAT SPGS FAIR      48  38  66 CALM      30.26S
WALDEN         NOT AVBL
$$

COZ006>008-011-291600-
...WEST CENTRAL VALLEYS...

CITY           SKY/WX    TMP DP  RH WIND       PRES   REMARKS
GRAND JUNCTION FAIR      64  36  35 SE15      30.16S
MONTROSE       FAIR      59  34  39 VRB3      30.23S
EAGLE          SUNNY     48  36  61 CALM      30.31F
RIFLE          FAIR      57  37  47 CALM      30.22S
DELTA          FAIR      61  34  36 CALM      30.20F
NUCLA          FAIR      59  32  36 CALM      30.23S
$$

COZ017>023-064>068-291600-
...SOUTHWEST COLORADO...

CITY           SKY/WX    TMP DP  RH WIND       PRES   REMARKS
DURANGO        FAIR      61  32  33 VRB3      30.23R
CORTEZ         FAIR      62  35  36 CALM      30.18R
PAGOSA SPRINGS FAIR      61  30  31 CALM      30.30S
TELLURIDE      FAIR      56  31  39 CALM      30.37R
WOLF CREEK PAS FAIR      43  21  42 S7        30.54S
$$

COZ009-010-012-014-032>034-037-058>063-291600-
...CENTRAL COLORADO...

CITY           SKY/WX    TMP DP  RH WIND       PRES   REMARKS
ASPEN          FAIR      52  33  48 CALM      30.29F
BUENA VISTA    FAIR      51  29  43 CALM      30.34F
COPPER MTN     NOT AVBL
BERTHOUD PASS  FAIR      34  27  75 W13G18    30.52R WCI  25
COTTONWOOD PAS FAIR      50  30  46 E6        30.41S
GUNNISON       FAIR      46  32  57 CALM      30.37S
KREMMLING      FAIR      46  34  61 CALM      30.33F
LEADVILLE      FAIR      44  27  51 VRB3      30.40S
MONARCH PASS   FAIR      37  25  60 S13G24    30.61R
SALIDA         FAIR      49  32  53 CALM      30.41S
SUNLIGHT       FAIR      45  30  57 CALM      30.47R
WILKERSON PASS FAIR      43  28  56 SW5       30.50S
$$

COZ069>075-291600-
...SAN LUIS VALLEY/SANGRE DE CRISTO MOUNTAINS...

CITY           SKY/WX    TMP DP  RH WIND       PRES   REMARKS
ALAMOSA        FAIR      54  38  54 VRB3      30.32F
LA VETA PASS   FAIR      50  28  43 S6        30.45R
SAGUACHE       FAIR      54  32  43 CALM      30.34F
$$

COZ035-036-038>040-291600-
...NORTHERN COLORADO FRONT RANGE...

CITY           SKY/WX    TMP DP  RH WIND       PRES   REMARKS
DENVER INTL AP FAIR      63  41  44 SW8       30.18R
DMNS CITY PARK   N/A     65  38  37 SW6G12    30.18S
AURORA         MOSUNNY   63  42  46 SW9       30.19S
FRONT RANGE AP MOSUNNY   63  45  51 SW7       30.19S
ERIE MUNI ARPT FAIR      62  38  40 CALM      30.17S
BOULDER MUN AP FAIR      63  39  42 N3        30.17F
CENTENNIAL     FAIR      64  37  36 SW3       30.20S
BROOMFIELD     MOSUNNY   64  36  34 CALM      30.20R
FORT COLLINS   FAIR      59  45  58 N3        30.18S
LONGMONT       FAIR      61  42  50 CALM      30.19R
$$

COZ041-046-047-076>085-087-088-291600-
...PIKES PEAK/PALMER DIVIDE AND SOUTHERN FOOTHILLS...

CITY           SKY/WX    TMP DP  RH WIND       PRES   REMARKS
COLO. SPRINGS  PTSUNNY   60  40  47 CALM      30.24F
A. F. ACADEMY  FAIR      57  37  47 VRB1      30.24F
SCHRIEVER AFB  NOT AVBL
ELLICOTT       FAIR     N/A N/A N/A CALM      30.22F
FALCON         FAIR      58  39  48 CALM      30.28S
FORT CARSON    PTSUNNY   59  43  54 N8        30.21F
LIMON          FAIR      60  48  64 VRB3      30.20S
MONUMENT HILL  FAIR      57  43  58 S9        30.28S
TRINIDAD       FAIR      60  41  49 NW6       30.24R
$$

COZ042>045-048>051-090-091-291600-
...NORTHEAST COLORADO...

CITY           SKY/WX    TMP DP  RH WIND       PRES   REMARKS
GREELEY ARPT   FAIR      61  48  63 CALM      30.17S
AKRON          FAIR      66  47  50 SW7       30.17S
BURLINGTON     FAIR      71  49  45 S13       30.16S
WRAY           NOT AVBL
STERLING       FAIR      61  52  72 SW8       30.14S
HOLYOKE        NOT AVBL
FORT MORGAN    FAIR      62  45  53 SW5       30.17S
$$

COZ086-089-092>099-291600-
...SOUTHEAST COLORADO...

CITY           SKY/WX    TMP DP  RH WIND       PRES   REMARKS
PUEBLO         FAIR      62  47  57 SW5       30.18R
LA JUNTA       FAIR      63  49  60 SW10      30.17R
LAMAR          FAIR      75  50  41 S8        30.12F
SPRINGFIELD      N/A     64  52  64 S21G32    30.16F
$$



USA.gov is the U.S. government's official web portal to all federal, state and local government web resources and services.